Regional Weather Roundup
Issued by NWS

Home | Current Version | Previous Version | Graphics & Text | Print | Product List | Glossary On
Versions: 1 2 3 4 5 6 7 8 9 10 11 12 13 14 15 16 17 18 19 20 21 22 23 24 25 26 27
000
ASUS45 KPSR 161810
RWRAZ

ARIZONA HOURLY REGIONAL WEATHER ROUNDUP
NATIONAL WEATHER SERVICE PHOENIX AZ
1100 AM MST THU NOV 16 2017

NOTE: FAIR INDICATES FEW OR NO CLOUDS BELOW 12,000 FEET WITH NO
SIGNIFICANT WEATHER AND/OR OBSTRUCTIONS TO VISIBILITY.

AZZ001>003-036-161900-
NORTHWEST ARIZONA

CITY           SKY/WX    TMP DP  RH WIND       PRES   REMARKS
BULLHEAD CITY  PTSUNNY   68  28  22 S5        29.99S
KINGMAN        MOSUNNY   73  31  21 S10       30.07F
6HR MIN TEMP:  46; 6HR MAX TEMP:  73;

$$

AZZ004>008-015-016-018-161900-
NORTH CENTRAL ARIZONA

CITY           SKY/WX    TMP DP  RH WIND       PRES   REMARKS
GRAND CANYON   PTSUNNY   57  23  26 SW12      30.21S
6HR MIN TEMP:  24; 6HR MAX TEMP:  57;

WILLIAMS       PTSUNNY   61  19  20 SW16G25   30.22R
PRESCOTT       CLOUDY    64  22  20 N3        30.17R
6HR MIN TEMP:  39; 6HR MAX TEMP:  64;

FLAGSTAFF      MOSUNNY   59  20  22 S18G26    30.22S
6HR MIN TEMP:  29; 6HR MAX TEMP:  59;

PAYSON           N/A     68  16  13 CALM      30.19F
PAGE           MOSUNNY   53  24  32 CALM      30.07F
6HR MIN TEMP:  41; 6HR MAX TEMP:  54;

$$

AZZ009>014-017-161900-
NORTHEAST ARIZONA

CITY           SKY/WX    TMP DP  RH WIND       PRES   REMARKS
WINSLOW        MOSUNNY   63  16  16 SE8       30.14F
6HR MIN TEMP:  35; 6HR MAX TEMP:  63;

SAINT JOHNS    SUNNY     66  18  15 CALM      30.17F
6HR MIN TEMP:  31; 6HR MAX TEMP:  66;

WINDOW ROCK    SUNNY     61  16  17 VRB5      30.21F
6HR MIN TEMP:  22; 6HR MAX TEMP:  61;

SHOW LOW       SUNNY     68  19  15 S20       30.23S
$$

AZZ540-542>544-546-548-161900-
GREATER PHOENIX AREA

CITY           SKY/WX    TMP DP  RH WIND       PRES   REMARKS
PHOENIX        MOSUNNY   77  27  15 E7        29.99S
6HR MIN TEMP:  60; 6HR MAX TEMP:  77;

BUCKEYE        SUNNY     73 N/A N/A CALM      30.00F
GLENDALE       MOSUNNY   73  32  21 CALM      30.02S
LUKE AFB       SUNNY     73  30  20 E5        29.99S
6HR MIN TEMP:  53; 6HR MAX TEMP:  73;

DEER VALLEY    SUNNY     75  23  14 VRB3      30.01S
6HR MIN TEMP:  56; 6HR MAX TEMP:  75;

SCOTTSDALE     SUNNY     75  31  19 CALM      30.03R
6HR MIN TEMP:  55; 6HR MAX TEMP:  76;

MESA-GATEWAY   MOSUNNY   72  25  17 CALM      30.02F
CHANDLER       MOSUNNY   73  27  17 CALM      30.01S
$$

AZZ539-553-161900-
SOUTHWEST MARICOPA COUNTY AND PINAL COUNTY

CITY           SKY/WX    TMP DP  RH WIND       PRES   REMARKS
CASA GRANDE    NOT AVBL
GILA BEND      MOSUNNY   73  30  20 NE5       29.99S
$$

AZZ503-504-507>509-161900-
SOUTHEAST ARIZONA

CITY           SKY/WX    TMP DP  RH WIND       PRES   REMARKS
TUCSON         SUNNY     79  23  12 S7        30.07F
6HR MIN TEMP:  53; 6HR MAX TEMP:  79;

DAVIS-MONTHAN  SUNNY     80  25  13 S6        30.05F
6HR MIN TEMP:  53; 6HR MAX TEMP:  80;

RYAN FIELD     SUNNY     75  30  19 E6        30.06F
NOGALES        SUNNY     79  21  11 SW5       30.12F
6HR MIN TEMP:  44; 6HR MAX TEMP:  79;

SIERRA VISTA   SUNNY     78  16   9 SE6       30.18F
6HR MIN TEMP:  53; 6HR MAX TEMP:  78;

DOUGLAS        SUNNY     73  20  13 S3        30.15F
6HR MIN TEMP:  37; 6HR MAX TEMP:  74;

SAFFORD        SUNNY     73  21  14 SE7       30.10F
6HR MIN TEMP:  44; 6HR MAX TEMP:  73;

$$

AZZ532-161900-
SOUTHWEST ARIZONA

CITY           SKY/WX    TMP DP  RH WIND       PRES   REMARKS
YUMA           MOSUNNY   77  35  21 NE7       29.96S
6HR MIN TEMP:  59; 6HR MAX TEMP:  77;

$$

CAZ041-043-047-048-061-525>527-560>570-161900-
SOUTHERN CALIFORNIA

CITY           SKY/WX    TMP DP  RH WIND       PRES   REMARKS
DOWNTOWN L.A.  PTSUNNY   72  47  40 CALM      29.98R
6HR MIN TEMP:  59; 6HR MAX TEMP:  72;

L.A. AIRPORT   PTSUNNY   74  48  39 CALM      29.98S
6HR MIN TEMP:  60; 6HR MAX TEMP:  74;

SAN DIEGO      CLOUDY    69  53  56 NW8       29.99R
6HR MIN TEMP:  61; 6HR MAX TEMP:  71;

BURBANK        PTSUNNY   69  48  47 S3        30.00R
6HR MIN TEMP:  58; 6HR MAX TEMP:  69;

ONTARIO        PTSUNNY   69  40  34 VRB3      30.00S
6HR MIN TEMP:  57; 6HR MAX TEMP:  69;

RIVERSIDE      CLOUDY    67  45  45 CALM      30.00S
6HR MIN TEMP:  54; 6HR MAX TEMP:  67;

PALM SPRINGS   PTSUNNY   76  37  24 VRB6      29.96S
6HR MIN TEMP:  61; 6HR MAX TEMP:  77;

EL CENTRO NAS  PTSUNNY   77  45  32 SE5       29.96S
6HR MIN TEMP:  55; 6HR MAX TEMP:  78;

IMPERIAL       SUNNY     78  44  29 VRB3      29.94R
6HR MIN TEMP:  56; 6HR MAX TEMP:  78;

BLYTHE         MOSUNNY   69  36  29 CALM      29.98F
6HR MIN TEMP:  52; 6HR MAX TEMP:  69;

NEEDLES        PTSUNNY   71  30  21 CALM      29.98F
6HR MIN TEMP:  56; 6HR MAX TEMP:  71;

$$

NVZ020-UTZ003-161900-
SOUTHERN NEVADA-UTAH

CITY           SKY/WX    TMP DP  RH WIND       PRES   REMARKS
LAS VEGAS      CLOUDY    76  41  28 SW13G25   29.92S
6HR MIN TEMP:  53; 6HR MAX TEMP:  76;

SALT LAKE CITY CLOUDY    63  28  26 S22G33    29.80S
6HR MIN TEMP:  60; 6HR MAX TEMP:  63;

$$

NMZ009-TXZ055-161900-
NEW MEXICO-WEST TEXAS

CITY           SKY/WX    TMP DP  RH WIND       PRES   REMARKS
ALBUQUERQUE    MOSUNNY   57  22  25 CALM      30.19F
6HR MIN TEMP:  36; 6HR MAX TEMP:  57;

EL PASO        MOSUNNY   67  31  26 S6        30.14F
6HR MIN TEMP:  46; 6HR MAX TEMP:  67;

$$


........................KEY........................
SKY/WX - SKY CONDITION/WEATHER
TMP    - TEMPERATURE IN FAHRENHEIT
DP     - DEW POINT IN FAHRENHEIT
RH     - RELATIVE HUMIDITY IN PERCENT
WIND   - DIRECTION AND SPEED IN MILES PER HOUR (MPH)
VRB    - VARIABLE WIND DIRECTION
PRES   - MEAN SEA LEVEL PRESSURE IN INCHES OF MERCURY
         F - FALLING PRESSURE   R - RISING PRESSURE
         S - STEADY PRESSURE
VSB    - VISIBILITY IN MILES
HX     - HEAT INDEX IN FAHRENHEIT
WCI    - WIND CHILL INDEX IN FAHRENHEIT
TC     - TEMPERATURE IN CELSIUS WHICH IS ALSO KNOWN AS
         TEMPERATURE IN CENTIGRADE
AFB    - AIR FORCE BASE
         LUKE AFB IS LUKE AIR FORCE BASE
         DAVIS-MONTHAN IS DAVIS-MONTHAN AIR FORCE BASE
NAS    - NAVAL AIR STATION
         EL CENTRO NAS IS EL CENTRO NAVAL AIR STATION
N/A    - NOT AVAILABLE





USA.gov is the U.S. government's official web portal to all federal, state and local government web resources and services.